Newport, Oregon, United States (97365)
Lat: 44.64N, Lon: 124.05W
Wx Zone: ORZ002
Local Info
Past Weather Observations for Today

NOTE: This archive is for the closest National Weather Service station to Newport. Information may differ from the station used for current weather conditions.

Time Weather Temperature Dewpoint Humidity Pressure Winds Precip Visibility
20:35
Clear
50°F / 10°C 37°F / 3°C 62% 29.92 in
(1013 mb)
E 9.2 mph
(E 15 kph)
- 10SM
20:15
Clear
52°F / 11°C 37°F / 3°C 58% 29.95 in
(1014 mb)
E 9.2 mph
(E 15 kph)
- 10SM
19:55
Clear
52°F / 11°C 37°F / 3°C 58% 29.95 in
(1014 mb)
E 9.2 mph
(E 15 kph)
- 10SM
19:35
Clear
52°F / 11°C 37°F / 3°C 58% 29.95 in
(1014 mb)
E 9.2 mph
(E 15 kph)
- 10SM
19:15
Clear
54°F / 12°C 37°F / 3°C 54% 29.95 in
(1014 mb)
E 9.2 mph
(E 15 kph)
- 10SM
18:55
Clear
55°F / 13°C 36°F / 2°C 47% 29.95 in
(1014 mb)
ENE 5.8 mph
(ENE 9 kph)
- 10SM
18:35
Clear
55°F / 13°C 36°F / 2°C 47% 29.95 in
(1014 mb)
ENE 6.9 mph
(ENE 11 kph)
- 10SM
18:15
Clear
57°F / 14°C 37°F / 3°C 48% 29.98 in
(1015 mb)
ENE 8.1 mph
(ENE 13 kph)
- 10SM
17:55
Clear
59°F / 15°C 37°F / 3°C 45% 29.98 in
(1015 mb)
ENE 8.1 mph
(ENE 13 kph)
- 10SM
17:35
Clear
55°F / 13°C 46°F / 8°C 72% 29.98 in
(1015 mb)
N 4.6 mph
(N 7 kph)
- 7SM
17:15
Clear
55°F / 13°C 46°F / 8°C 72% 29.98 in
(1015 mb)
NNW 4.6 mph
(NNW 7 kph)
- 7SM
16:55
Clear
55°F / 13°C 46°F / 8°C 72% 30.01 in
(1016 mb)
NNW 8.1 mph
(NNW 13 kph)
- 7SM
16:35
Clear
55°F / 13°C 46°F / 8°C 72% 30.01 in
(1016 mb)
NNW 10.4 mph
(NNW 17 kph)
- 7SM
16:15
Clear
Hazy
57°F / 14°C 46°F / 8°C 67% 30.01 in
(1016 mb)
NNW 10.4 mph
(NNW 17 kph)
- 5SM
15:55
Clear
55°F / 13°C 46°F / 8°C 72% 30.01 in
(1016 mb)
NNW 9.2 mph
(NNW 15 kph)
- 7SM
15:35
Clear
55°F / 13°C 46°F / 8°C 72% 30.04 in
(1017 mb)
NNW 9.2 mph
(NNW 15 kph)
- 10SM
15:15
Clear
55°F / 13°C 46°F / 8°C 72% 30.04 in
(1017 mb)
NNW 13.8 mph
(NNW 22 kph)
- 10SM
14:55
Clear
55°F / 13°C 45°F / 7°C 67% 30.06 in
(1018 mb)
NNW 15 mph
(NNW 24 kph)
- 10SM
14:35
Clear
55°F / 13°C 45°F / 7°C 67% 30.06 in
(1018 mb)
NNW 13.8 mph
(NNW 22 kph)
- 10SM
14:15
Clear
55°F / 13°C 45°F / 7°C 67% 30.06 in
(1018 mb)
NNW 15 mph
(NNW 24 kph)
- 10SM
13:55
Clear
55°F / 13°C 45°F / 7°C 67% 30.06 in
(1018 mb)
NNW 15 mph
(NNW 24 kph)
- 10SM
13:35
Clear
55°F / 13°C 45°F / 7°C 67% 30.09 in
(1019 mb)
NNW 16.1 mph
(NNW 26 kph)
- 10SM
13:15
Clear
55°F / 13°C 45°F / 7°C 67% 30.09 in
(1019 mb)
NNW 15 mph
(NNW 24 kph)
- 10SM
12:55
Clear
61°F / 16°C 41°F / 5°C 48% 30.09 in
(1019 mb)
NE 11.5 mph
(NE 19 kph)
- 7SM
12:35
Clear
59°F / 15°C 41°F / 5°C 51% 30.12 in
(1020 mb)
E 9.2 mph
(E 15 kph)
- 10SM
12:15
Clear
59°F / 15°C 41°F / 5°C 51% 30.12 in
(1020 mb)
ENE 5.8 mph
(ENE 9 kph)
- 10SM
11:55
Clear
57°F / 14°C 43°F / 6°C 59% 30.12 in
(1020 mb)
ENE 5.8 mph
(ENE 9 kph)
- 10SM
11:35
Clear
55°F / 13°C 43°F / 6°C 63% 30.12 in
(1020 mb)
ENE 12.7 mph
(ENE 20 kph)
- 10SM
11:15
Clear
55°F / 13°C 43°F / 6°C 63% 30.15 in
(1021 mb)
E 8.1 mph
(E 13 kph)
- 10SM
10:55
Clear
54°F / 12°C 43°F / 6°C 67% 30.15 in
(1021 mb)
E 9.2 mph
(E 15 kph)
- 10SM
10:35
Clear
54°F / 12°C 41°F / 5°C 63% 30.15 in
(1021 mb)
NE 10.4 mph
(NE 17 kph)
- 10SM
10:15
Clear
52°F / 11°C 43°F / 6°C 72% 30.15 in
(1021 mb)
NE 3.5 mph
(NE 6 kph)
- 10SM
09:55
Clear
52°F / 11°C 45°F / 7°C 77% 30.18 in
(1022 mb)
NE 5.8 mph
(NE 9 kph)
- 10SM
09:35
Clear
52°F / 11°C 45°F / 7°C 77% 30.15 in
(1021 mb)
NE 6.9 mph
(NE 11 kph)
- 10SM
09:15
Clear
50°F / 10°C 45°F / 7°C 82% 30.15 in
(1021 mb)
ENE 6.9 mph
(ENE 11 kph)
- 10SM
08:55
Clear
48°F / 9°C 46°F / 8°C 94% 30.15 in
(1021 mb)
NE 5.8 mph
(NE 9 kph)
- 10SM
08:35
Clear
46°F / 8°C 45°F / 7°C 93% 30.15 in
(1021 mb)
ENE 4.6 mph
(ENE 7 kph)
- 10SM
08:15
Clear
45°F / 7°C 45°F / 7°C 100% 30.15 in
(1021 mb)
E 5.8 mph
(E 9 kph)
- 10SM
07:55
Clear
43°F / 6°C 43°F / 6°C 100% 30.15 in
(1021 mb)
E 4.6 mph
(E 7 kph)
- 10SM
07:35
Partly Cloudy
Fog And Mist
43°F / 6°C 43°F / 6°C 100% 30.15 in
(1021 mb)
E 8.1 mph
(E 13 kph)
- 5SM
07:15
Overcast
Fog
41°F / 5°C 41°F / 5°C 100% 30.15 in
(1021 mb)
E 8.1 mph
(E 13 kph)
- 1/4SM
06:55
Mostly Cloudy
Fog
41°F / 5°C 39°F / 4°C 93% 30.15 in
(1021 mb)
E 9.2 mph
(E 15 kph)
- 1/2SM
06:35
Mostly Cloudy
Fog And Mist
39°F / 4°C 39°F / 4°C 100% 30.15 in
(1021 mb)
E 6.9 mph
(E 11 kph)
- 1SM
06:15
Mostly Cloudy
Fog And Mist
39°F / 4°C 37°F / 3°C 93% 30.15 in
(1021 mb)
E 5.8 mph
(E 9 kph)
- 1 1/4SM
05:55
Overcast
Fog
37°F / 3°C 37°F / 3°C 100% 30.15 in
(1021 mb)
E 4.6 mph
(E 7 kph)
- 1/2SM
05:35
Mostly Cloudy
Fog And Mist
37°F / 3°C 37°F / 3°C 100% 30.15 in
(1021 mb)
ENE 4.6 mph
(ENE 7 kph)
- 2SM
05:15
Partly Cloudy
Fog And Mist
37°F / 3°C 37°F / 3°C 100% 30.15 in
(1021 mb)
E 4.6 mph
(E 7 kph)
- 1 1/4SM
04:55
Clear
37°F / 3°C 37°F / 3°C 100% 30.15 in
(1021 mb)
E 5.8 mph
(E 9 kph)
- 10SM
04:35
Clear
37°F / 3°C 37°F / 3°C 100% 30.15 in
(1021 mb)
E 4.6 mph
(E 7 kph)
- 10SM
04:15
Clear
39°F / 4°C 37°F / 3°C 93% 30.15 in
(1021 mb)
E 5.8 mph
(E 9 kph)
- 10SM
03:55
Partly Cloudy
41°F / 5°C 39°F / 4°C 93% 30.15 in
(1021 mb)
E 3.5 mph
(E 6 kph)
- 10SM
03:35
Overcast
41°F / 5°C 41°F / 5°C 100% 30.15 in
(1021 mb)
Calm - 10SM
03:15
Overcast
41°F / 5°C 41°F / 5°C 100% 30.15 in
(1021 mb)
Calm - 10SM
02:55
Overcast
41°F / 5°C 39°F / 4°C 93% 30.15 in
(1021 mb)
Calm - 10SM
02:35
Mostly Cloudy
39°F / 4°C 37°F / 3°C 93% 30.15 in
(1021 mb)
Calm - 7SM
02:15
Clear
39°F / 4°C 37°F / 3°C 93% 30.15 in
(1021 mb)
ESE 3.5 mph
(ESE 6 kph)
- 7SM
01:55
Clear
37°F / 3°C 37°F / 3°C 100% 30.12 in
(1020 mb)
Calm - 7SM
01:35
Partly Cloudy
39°F / 4°C 37°F / 3°C 93% 30.12 in
(1020 mb)
Calm - 7SM
01:15
Partly Cloudy
39°F / 4°C 37°F / 3°C 93% 30.12 in
(1020 mb)
E 3.5 mph
(E 6 kph)
- 7SM
00:55
Fair
41°F / 5°C 37°F / 3°C 87% N/A Calm -
00:35
Fair
41°F / 5°C 37°F / 3°C 87% N/A Calm -
00:15
Fair
41°F / 5°C 37°F / 3°C 87% 30.12 in
(1020 mb)
Calm -
Time Weather Temperature Dewpoint Humidity Pressure Winds Precip Visibility


Weather for websites

WeatherForYou.com, LLC is not responsible for any damages or problems caused by this service. Current weather conditions are obtained from the closest station including government and personal stations which may have varying degrees of accuracy. Weather forecasts are derived from the NOAA NDFD. Like all things, this site belongs to Jesus Christ... He just trusts me to maintain it. If you have any questions or comments email webmaster@weatherforyou.com

Copyright © 2014, WeatherForYou.com LLC. All rights reserved.